Location: Beaver Brook Station
(42.3793°N, 71.2203°W)
Time: 06:33:32
(UTC+00:00)

CZ-2C R/B - Pass Details

Date: 29 October 2020
Orbit: 703 x 909 km, 98.1° (Epoch: 23 November)

Event Time Altitude Azimuth Distance (km) Brightness Sun altitude
Rises 22:37:44 0° 141° (SE) 3,521 6.1 -11.0°
Reaches altitude 10° 22:40:20 10° 133° (SE) 2,575 5.4 -11.4°
Maximum altitude 22:45:33 36° 68° (ENE) 1,361 3.8 -12.4°
Drops below altitude 10° 22:50:37 10° 4° (N) 2,509 5.6 -13.3°
Sets 22:53:07 0° 356° (N) 3,420 6.3 -13.8°
